Weather History for Aniak, AK

Change the Weather History Date:

Friday, October 12, 2012

  Actual Average Record
Temperature  
Mean Temperature 28 °F -  
Max Temperature 33 °F 34 °F 51 °F (2004)
Min Temperature 24 °F 23 °F 3 °F (2000)
Degree Days  
Heating Degree Days 36    
Moisture  
Dew Point 14 °F    
Average Humidity 53    
Maximum Humidity 64    
Minimum Humidity 37    
Precipitation  
Precipitation 0.00 in - - ()
Sea Level Pressure  
Sea Level Pressure 29.53 in    
Wind  
Wind Speed 11 mph (North)    
Max Wind Speed 18 mph    
Max Gust Speed 29 mph    
Visibility 10 miles    
Events      
Averages and records for this station are not official NWS values.
T = Trace of Precipitation, MM = Missing Value Source: NWS Daily Summary

Daily Weather History Graph

Daily Weather History Graph

Search for Another Location

Airport:

Trip Planner

Search our weather history database for the weather conditions in past years. The results will help you decide how hot, cold, wet, or windy it might be!

Date:

Astronomy

Oct. 12, 2012 Rise Set
Actual Time 9:15 AM AKDT 7:32 PM AKDT
Civil Twilight 8:31 AM AKDT 8:16 PM AKDT
Nautical Twilight 7:40 AM AKDT 9:06 PM AKDT
Astronomical Twilight 6:48 AM AKDT 9:58 PM AKDT
Moon 5:28 AM AKDT (10/12) 6:20 PM AKDT (10/12)
Length of Visible Light 11h 45m
Length of Day
10h 16m
Waning Crescent, 10% of the Moon is Illuminated
Oct 12
Waning Crescent
Oct 15
New
Oct 21
First Quarter
Oct 29
Full
Nov 6
Last Quarter

Hourly Weather History & Observations

Time (AKDT) Temp. Windchill Dew Point Humidity Pressure Visibility Wind Dir Wind Speed Gust Speed Precip Events Conditions
12:16 AM 32.0 °F 22.5 °F 12.2 °F 44% 29.66 in 10.0 mi NNE 12.7 mph 18.4 mph N/A   Clear
12:36 AM 32.0 °F 23.0 °F 12.2 °F 44% 29.66 in 10.0 mi North 11.5 mph - N/A   Clear
12:56 AM 32.0 °F 24.2 °F 12.2 °F 44% 29.65 in 10.0 mi North 9.2 mph 19.6 mph N/A   Clear
1:16 AM 32.0 °F 24.8 °F 12.2 °F 44% 29.65 in 10.0 mi NNE 8.1 mph 18.4 mph N/A   Clear
1:36 AM 32.0 °F 23.6 °F 12.2 °F 44% 29.65 in 10.0 mi North 10.4 mph 19.6 mph N/A   Clear
1:56 AM 30.2 °F 20.8 °F 12.2 °F 47% 29.64 in 10.0 mi North 11.5 mph 17.3 mph N/A   Clear
2:16 AM 30.2 °F 21.3 °F 12.2 °F 47% 29.64 in 10.0 mi North 10.4 mph 16.1 mph N/A   Clear
2:36 AM 28.4 °F 19.1 °F 14.0 °F 55% 29.63 in 10.0 mi North 10.4 mph 16.1 mph N/A   Clear
2:56 AM 28.4 °F 18.5 °F 14.0 °F 55% 29.62 in 10.0 mi North 11.5 mph 17.3 mph N/A   Clear
3:16 AM 26.6 °F 15.7 °F 12.2 °F 55% 29.62 in 10.0 mi North 12.7 mph 18.4 mph N/A   Clear
3:36 AM 28.4 °F 20.4 °F 14.0 °F 55% 29.62 in 10.0 mi North 8.1 mph - N/A   Clear
4:16 AM 26.6 °F 19.1 °F 12.2 °F 55% 29.62 in 10.0 mi North 6.9 mph - N/A   Clear
4:36 AM 26.6 °F 16.2 °F 12.2 °F 55% 29.60 in 10.0 mi North 11.5 mph 17.3 mph N/A   Clear
4:56 AM 26.6 °F 16.8 °F 12.2 °F 55% 29.59 in 10.0 mi North 10.4 mph 16.1 mph N/A   Clear
5:16 AM 26.6 °F 19.1 °F 12.2 °F 55% 29.60 in 10.0 mi North 6.9 mph - N/A   Clear
5:36 AM 26.6 °F 18.2 °F 12.2 °F 55% 29.60 in 10.0 mi North 8.1 mph - N/A   Clear
5:56 AM 26.6 °F 20.0 °F 10.4 °F 51% 29.60 in 10.0 mi NNW 5.8 mph - N/A   Clear
6:16 AM 26.6 °F 21.2 °F 12.2 °F 55% 29.59 in 10.0 mi North 4.6 mph - N/A   Clear
6:36 AM 26.6 °F 16.8 °F 12.2 °F 55% 29.58 in 10.0 mi North 10.4 mph - N/A   Clear
6:56 AM 24.8 °F 17.9 °F 12.2 °F 59% 29.58 in 10.0 mi North 5.8 mph - N/A   Clear
7:16 AM 26.6 °F 16.8 °F 12.2 °F 55% 29.58 in 10.0 mi North 10.4 mph 21.9 mph N/A   Clear
7:36 AM 24.8 °F 15.3 °F 12.2 °F 59% 29.57 in 10.0 mi North 9.2 mph - N/A   Clear
7:56 AM 24.8 °F 14.6 °F 12.2 °F 59% 29.57 in 10.0 mi North 10.4 mph 17.3 mph N/A   Clear
8:16 AM 24.8 °F 14.0 °F 12.2 °F 59% 29.57 in 10.0 mi North 11.5 mph 17.3 mph N/A   Clear
8:36 AM 24.8 °F 14.0 °F 12.2 °F 59% 29.57 in 10.0 mi North 11.5 mph 16.1 mph N/A   Clear
8:56 AM 24.8 °F 14.0 °F 12.2 °F 59% 29.57 in 10.0 mi North 11.5 mph 16.1 mph N/A   Clear
9:16 AM 24.8 °F 16.9 °F 12.2 °F 59% 29.57 in 10.0 mi North 6.9 mph 18.4 mph N/A   Clear
9:36 AM 24.8 °F 15.3 °F 12.2 °F 59% 29.56 in 10.0 mi North 9.2 mph 16.1 mph N/A   Clear
9:56 AM 24.8 °F 12.9 °F 12.2 °F 59% 29.56 in 10.0 mi North 13.8 mph 18.4 mph N/A   Clear
11:16 AM 26.6 °F 18.2 °F 12.2 °F 55% 29.55 in 10.0 mi NNE 8.1 mph - N/A   Clear
11:36 AM 26.6 °F 19.1 °F 12.2 °F 55% 29.55 in 10.0 mi NNE 6.9 mph - N/A   Clear
11:56 AM 26.6 °F 13.8 °F 12.2 °F 55% 29.54 in 10.0 mi North 17.3 mph 20.7 mph N/A   Clear
12:16 PM 28.4 °F 19.7 °F 12.2 °F 51% 29.54 in 10.0 mi NNE 9.2 mph 19.6 mph N/A   Clear
12:56 PM 28.4 °F 18.5 °F 14.0 °F 55% 29.52 in 10.0 mi NNE 11.5 mph 18.4 mph N/A   Clear
1:16 PM 30.2 °F 19.3 °F 14.0 °F 51% 29.51 in 10.0 mi North 15.0 mph 24.2 mph N/A   Clear
1:36 PM 30.2 °F 19.8 °F 15.8 °F 55% 29.50 in 10.0 mi North 13.8 mph 20.7 mph N/A   Clear
1:56 PM 30.2 °F 20.2 °F 15.8 °F 55% 29.51 in 10.0 mi North 12.7 mph 20.7 mph N/A   Clear
2:16 PM 32.0 °F 23.6 °F 14.0 °F 48% 29.50 in 10.0 mi North 10.4 mph 20.7 mph N/A   Clear
2:36 PM 32.0 °F 22.1 °F 14.0 °F 48% 29.49 in 10.0 mi NNE 13.8 mph 23.0 mph N/A   Clear
2:56 PM 33.8 °F 25.3 °F 15.8 °F 48% 29.48 in 10.0 mi North 11.5 mph 19.6 mph N/A   Clear
3:16 PM 33.8 °F 23.9 °F 15.8 °F 48% 29.48 in 10.0 mi North 15.0 mph 21.9 mph N/A   Clear
3:36 PM 33.8 °F 24.8 °F 15.8 °F 48% 29.47 in 10.0 mi North 12.7 mph 21.9 mph N/A   Clear
3:56 PM 33.8 °F 23.2 °F 15.8 °F 48% 29.46 in 10.0 mi North 17.3 mph 24.2 mph N/A   Clear
4:16 PM 33.8 °F 24.3 °F 15.8 °F 48% 29.45 in 10.0 mi North 13.8 mph 23.0 mph N/A   Clear
4:36 PM 33.8 °F 23.2 °F 15.8 °F 48% 29.45 in 10.0 mi North 17.3 mph 25.3 mph N/A   Clear
4:56 PM 33.8 °F 23.9 °F 15.8 °F 48% 29.45 in 10.0 mi NNE 15.0 mph 26.5 mph N/A   Clear
5:16 PM 33.8 °F 24.3 °F 15.8 °F 48% 29.45 in 10.0 mi North 13.8 mph 26.5 mph N/A   Clear
5:36 PM 33.8 °F 23.2 °F 15.8 °F 48% 29.45 in 10.0 mi NNE 17.3 mph 23.0 mph N/A   Clear
5:56 PM 33.8 °F 24.3 °F 15.8 °F 48% 29.45 in 10.0 mi North 13.8 mph 25.3 mph N/A   Clear
6:16 PM 32.0 °F 21.2 °F 15.8 °F 51% 29.45 in 10.0 mi NNE 16.1 mph 24.2 mph N/A   Clear
6:36 PM 32.0 °F 21.6 °F 15.8 °F 51% 29.44 in 10.0 mi North 15.0 mph 28.8 mph N/A   Clear
6:56 PM 32.0 °F 20.5 °F 15.8 °F 51% 29.44 in 10.0 mi North 18.4 mph 28.8 mph N/A   Clear
7:16 PM 30.2 °F 19.3 °F 15.8 °F 55% 29.44 in 10.0 mi North 15.0 mph 23.0 mph N/A   Clear
7:36 PM 30.2 °F 20.2 °F 15.8 °F 55% 29.44 in 10.0 mi NNE 12.7 mph 21.9 mph N/A   Clear
7:56 PM 30.2 °F 20.8 °F 15.8 °F 55% 29.44 in 10.0 mi North 11.5 mph 20.7 mph N/A   Clear
8:16 PM 30.2 °F 20.2 °F 15.8 °F 55% 29.44 in 10.0 mi North 12.7 mph 18.4 mph N/A   Clear
8:36 PM 30.2 °F 21.3 °F 15.8 °F 55% 29.44 in 10.0 mi North 10.4 mph 23.0 mph N/A   Clear
8:56 PM 28.4 °F 19.1 °F 15.8 °F 59% 29.44 in 10.0 mi North 10.4 mph 18.4 mph N/A   Clear
9:16 PM 28.4 °F 18.0 °F 15.8 °F 59% 29.44 in 10.0 mi North 12.7 mph 17.3 mph N/A   Clear
10:16 PM 28.4 °F 18.0 °F 15.8 °F 59% 29.43 in 10.0 mi North 12.7 mph 20.7 mph N/A   Clear
10:36 PM 28.4 °F 19.7 °F 15.8 °F 59% 29.43 in 10.0 mi North 9.2 mph 18.4 mph N/A   Clear
10:56 PM 28.4 °F 19.7 °F 15.8 °F 59% 29.43 in 10.0 mi North 9.2 mph - N/A   Clear
11:16 PM 28.4 °F 19.1 °F 15.8 °F 59% 29.43 in 10.0 mi North 10.4 mph 18.4 mph N/A   Clear
11:36 PM 26.6 °F 16.8 °F 15.8 °F 64% 29.43 in 10.0 mi North 10.4 mph 17.3 mph N/A   Clear
11:56 PM 26.6 °F 18.2 °F 15.8 °F 64% 29.43 in 10.0 mi North 8.1 mph 16.1 mph N/A   Clear